STARLINK-34545 (65105 NORAD) Tracking and Keplerian Element Data

This shows tracking and keplerian element data for the satellite.

Feedback or suggestion? Click here.




ElementValue
Catalog65105
NameSTARLINK-34545
Epoch Orbit2121
Epoch Day353.5509283
Epoch Year2025
RAAN38.6514
Inclination53.1596
Eccentricity0.0001247
Argument of Perigee59.1534
Mean Anonmoly300.9589
Mean Motion15.30172871
Decay Rate0.00022722
L11 65105U 25167AD 25353.55092830 .00022722 00000+0 77759-3 0 9990
L22 65105 53.1596 38.6514 0001247 59.1534 300.9589 15.30172871 21211



Live tracking and technical data element details for STARLINK-34545 (NORAD 65105). STARLINK-34545 can be tracked NOW for your location showing map with azimuth and elevation plus other details from your city location.







IsCatalogInMostPopularTable: catalog: 65105, numindb: 8
Update: records affected: 1



GetName: 65105 STARLINK-34545

Hit Count: updated at: Sat, 11 Apr 2026 20:05:26 GMT